Location: Six Mile Lake
(44.9000°N, 79.7170°W)
Time: 21:33:51
(UTC-04:00)

Max Valier Satellite - Pass Details

Date: 26 June 2022
Orbit: 474 x 491 km, 97.2° (Epoch: 17 August)

Event Time Altitude Azimuth Distance (km) Brightness Sun altitude
Rises 22:09:41 0° 212° (SSW) 2,542 ? -8.9°
Reaches altitude 10° 22:12:42 10° 241° (WSW) 1,674 ? -9.3°
Maximum altitude 22:14:26 13° 270° (W) 1,501 ? -9.5°
Drops below altitude 10° 22:16:11 10° 299° (WNW) 1,687 ? -9.7°
Sets 22:19:16 0° 328° (NNW) 2,581 ? -10.1°
